Location: Frear Park
(42.7448°N, 73.6735°W)
Time: 08:28:09
(UTC+00:00)

Daily predictions for brighter satellites

Satellite Brightness Start Highest point End
(mag) Time Altitude Azimuth Time Altitude Azimuth Time Altitude Azimuth
Cosmos 1833 4.5 22:13:02 10° SSW 22:18:42 75° WNW 22:24:27 10° NNE
AQUARIUS 4.1 22:14:16 10° SSE 22:18:43 72° ENE 22:23:12 10° N
Starlink AQ 2.7 22:17:56 10° SW 22:20:44 70° SE 22:23:34 10° ENE
Alouette 2 Rocket 4.5 22:16:15 10° N 22:20:48 50° ENE 22:27:36 10° SSE
Cosmos 2184 Rocket 4.0 22:15:22 10° S 22:21:26 62° E 22:27:31 10° NNE
YAOGAN 6 3.5 22:18:51 10° SE 22:22:04 29° ENE 22:25:18 10° N
Starlink AS 2.6 22:20:33 10° SW 22:23:21 75° SE 22:26:12 10° ENE
Starlink BA 2.6 22:20:45 10° SW 22:23:33 75° SE 22:26:24 10° ENE
Okean 1-7 Rocket 3.8 22:19:15 10° SSW 22:23:37 77° W 22:28:03 10° N
Starlink AU 2.6 22:20:56 10° SW 22:23:45 76° SE 22:26:35 10° ENE
Starlink AT 2.6 22:21:09 10° SW 22:23:58 76° SE 22:26:48 10° ENE
Starlink BB 2.6 22:21:21 10° SW 22:24:10 77° SE 22:27:00 10° NE
ATLAS 5 CENTAUR R/B 2.5 22:20:15 10° WSW 22:24:17 46° NW 22:28:49 10° NNE
Starlink BC 2.6 22:21:34 10° SW 22:24:23 77° SE 22:27:13 10° NE
Starlink BK 2.6 22:21:46 10° SW 22:24:35 78° SE 22:27:25 10° NE
Starlink AY 2.6 22:21:58 10° SW 22:24:47 78° SE 22:27:38 10° NE
Starlink AW 2.6 22:22:13 10° SW 22:25:03 79° SE 22:27:54 10° NE
Starlink BJ 2.6 22:22:20 10° SW 22:25:10 79° SE 22:28:00 10° NE
Starlink AV 2.6 22:22:32 10° SW 22:25:21 79° SE 22:28:12 10° NE
Starlink BD 2.6 22:22:44 10° SW 22:25:33 80° SSE 22:28:25 10° NE
Cosmos 1242 Rocket 3.1 22:22:22 10° SSE 22:25:34 35° E 22:28:48 10° NNE
Starlink BE 2.6 22:22:59 10° SW 22:25:50 80° SE 22:28:42 10° NE
Cosmos 2333 4.2 22:20:12 10° NNW 22:25:56 68° ENE 22:31:34 10° SSE
Starlink BM 2.6 22:23:09 10° SW 22:25:58 80° SE 22:28:49 10° NE
Cosmos 2298 Rocket 4.0 22:20:53 10° S 22:26:09 71° ESE 22:31:27 10° NNE
Starlink AX 2.6 22:23:23 10° SW 22:26:13 81° SE 22:29:06 10° NE
Starlink BH 2.6 22:23:34 10° SW 22:26:24 81° SE 22:29:14 10° NE
Starlink AZ 2.6 22:23:46 10° SW 22:26:36 82° SE 22:29:26 10° NE
Starlink BG 2.6 22:23:59 10° SW 22:26:49 82° SE 22:29:40 10° NE
Starlink BF 2.6 22:24:11 10° SW 22:27:01 83° SE 22:29:52 10° NE
Starlink BL 2.6 22:24:23 10° SW 22:27:13 83° SSE 22:30:06 10° NE
Starlink AH 2.6 22:24:33 10° SW 22:27:23 83° SE 22:30:12 10° NE
YAOGAN 1 3.8 22:24:28 10° ESE 22:27:38 20° ENE 22:30:49 10° NNE
Starlink AC 2.6 22:24:47 10° SW 22:27:39 84° SE 22:30:29 10° NE
Starlink X 2.6 22:24:57 10° SW 22:27:46 84° SSE 22:30:36 10° NE
Cosmos 2322 3.7 22:22:06 10° NNW 22:27:47 79° ENE 22:33:27 10° SSE
Starlink AE 2.6 22:25:12 10° SW 22:28:02 85° SSE 22:30:53 10° NE
Starlink Z 2.6 22:25:22 10° SW 22:28:12 85° SE 22:31:00 10° NE
Starlink AK 2.6 22:25:36 10° SW 22:28:26 85° SE 22:31:13 10° NE
Starlink AL 2.6 22:25:48 10° SW 22:28:38 86° SE 22:31:25 11° NE
Starlink AD 2.6 22:25:57 10° SW 22:28:48 86° SSE 22:31:35 10° NE
Cosmos 2154 Rocket 4.3 22:23:16 10° SSE 22:29:11 45° E 22:35:05 10° NNE
Starlink Y 2.6 22:26:24 10° SW 22:29:14 87° SE 22:32:00 11° NE
Starlink AG 2.6 22:26:36 10° SW 22:29:26 88° SSE 22:32:11 11° NE
Starlink W 2.6 22:26:49 10° SW 22:29:39 88° SE 22:32:25 11° NE
Starlink AJ 2.6 22:26:58 10° SW 22:29:49 88° SE 22:32:33 11° NE
Starlink AM 2.6 22:27:22 10° SW 22:30:12 89° S 22:32:56 11° NE
Starlink AP 2.6 22:27:34 10° SW 22:30:25 90° ESE 22:33:08 11° NE
Starlink AA 2.6 22:27:47 10° SW 22:30:37 90° SW 22:33:20 11° NE
Starlink AF 2.6 22:28:03 10° SW 22:30:53 89° W 22:33:37 11° NE
Starlink AB 2.6 22:28:14 10° SW 22:31:04 89° NW 22:33:46 11° NE
Starlink AN 2.6 22:28:24 10° SW 22:31:14 89° NW 22:33:56 11° NE
Cosmos 2058 Rocket 3.4 22:31:56 10° NNW 22:36:17 70° W 22:40:36 10° S
Cosmos 2297 Rocket 3.6 22:33:15 10° SE 22:36:47 17° E 22:39:53 11° ENE
CORIOLIS 4.3 22:32:14 10° SSE 22:37:37 84° WSW 22:43:01 10° NNW
Starlink AR 2.5 22:36:06 10° WSW 22:38:35 66° NW 22:40:39 14° NE
Starlink T 2.7 22:36:28 10° WSW 22:39:18 73° NW 22:41:40 14° NE
Starlink N 2.7 22:37:10 10° WSW 22:39:58 71° NW 22:42:20 14° NE
Starlink Q 2.8 22:38:51 10° WSW 22:41:40 68° NW 22:43:58 14° NE
Starlink P 2.8 22:39:55 10° WSW 22:42:44 67° NW 22:44:59 15° NE
Cosmos 2360 Rocket 3.5 22:38:24 10° NW 22:43:45 44° WSW 22:49:02 10° S
Starlink U 2.8 22:41:11 10° WSW 22:44:00 65° NW 22:46:13 15° NE
NOAA 12 4.1 22:39:12 10° SSE 22:44:26 89° ENE 22:49:42 10° NNW
Cosmos-2242 4.5 22:42:07 10° NNE 22:44:54 16° ENE 22:47:40 10° ESE
Starlink B 2.9 22:42:29 10° WSW 22:45:18 63° NNW 22:47:27 16° NE
Cosmos 1602 Rocket 3.7 22:41:59 10° S 22:46:16 53° E 22:50:33 10° NNE
Cosmos 1610 Rocket 4.4 22:40:24 10° S 22:46:25 66° E 22:52:30 10° NNE
COSMOS 2428 2.7 22:41:53 10° NNW 22:47:38 67° ENE 22:53:20 10° SSE
Cosmos 2227 Rocket 3.5 22:44:34 10° SE 22:48:29 20° E 22:51:03 15° ENE
Starlink D 3.0 22:46:24 10° WSW 22:49:15 57° NNW 22:51:17 17° NE
Starlink S 3.1 22:47:38 10° WSW 22:50:29 56° NNW 22:52:29 17° NE
CZ-4C R/B 3.1 22:43:42 10° NNW 22:50:45 55° NE 22:58:46 10° SE
ADEOS Rocket 4.3 22:46:28 10° NE 22:51:33 23° E 22:56:58 10° SE
Starlink C 3.1 22:48:50 10° WSW 22:51:40 54° NNW 22:53:37 18° NE
Okean-O 2.6 22:48:11 10° SSE 22:52:37 87° ENE 22:57:05 10° NNW
Cosmos 2219 Rocket 2.1 22:47:01 10° NNW 22:52:44 76° ENE 22:58:23 10° SSE
Starlink E 3.2 22:50:05 10° WSW 22:52:55 53° NNW 22:54:49 18° NE
Cosmos 2074 Rocket 4.3 22:46:58 10° SSW 22:53:15 73° W 22:59:34 10° N
Starlink J 3.2 22:51:20 10° WSW 22:54:09 51° NNW 22:56:01 19° NE
USA 32 4.5 22:50:01 10° SSE 22:54:50 39° E 22:59:41 10° NNE
COSMO-SKYMED 1 2.6 22:51:02 10° NNE 22:55:22 63° E 22:59:40 10° S
Starlink V 3.3 22:52:34 10° WSW 22:55:23 50° NNW 22:57:12 19° NE
Starlink H 3.3 22:53:49 10° WSW 22:56:38 49° NNW 22:58:24 20° NE
Starlink F 3.3 22:55:05 10° WSW 22:57:54 47° NNW 22:59:37 20° NE
Starlink G 3.4 22:56:20 10° WSW 22:59:08 46° NNW 23:00:49 20° NE
Cosmos 2150 Rocket 4.4 22:55:10 10° SSW 23:00:18 64° WNW 23:05:25 10° NNE
Starlink L 3.4 22:57:36 10° WSW 23:00:24 45° NNW 23:02:01 21° NNE
Starlink A 3.5 22:58:52 10° WSW 23:01:40 44° NNW 23:03:14 21° NNE
Cosmos 1758 Rocket 4.1 22:59:02 10° SSE 23:02:55 33° E 23:06:20 13° NNE
Starlink R 3.5 23:00:09 10° WSW 23:02:56 43° NNW 23:04:28 22° NNE
USA 267 4.4 22:57:55 10° NE 23:03:26 31° NNW 23:08:59 10° WNW
Starlink K 3.6 23:01:23 10° WSW 23:04:10 42° NNW 23:05:39 22° NNE
Starlink M 3.6 23:02:36 10° WSW 23:05:22 41° NNW 23:06:49 23° NNE
Cosmos 1461 3.0 23:01:01 10° NNW 23:05:22 89° NE 23:09:54 10° SSE
CZ-2D R/B 3.9 23:02:17 10° SE 23:05:42 32° ENE 23:09:09 10° N
Cosmos 962 Rocket 4.5 23:02:16 10° SSE 23:08:12 57° E 23:14:13 10° NNE
Cosmos 1626 Rocket 3.9 23:05:33 10° SSW 23:09:51 65° W 23:14:10 10° N
Nadezhda 3 Rocket 4.0 23:08:43 10° N 23:15:02 87° W 23:21:21 10° S
Cosmos 1340 Rocket 2.6 23:11:31 10° N 23:15:28 80° E 23:19:26 10° SSE
Timation 2 Rocket 4.3 23:13:31 10° SW 23:19:32 66° WNW 23:25:50 10° NNE
Cosmos 1125 Rocket 3.7 23:16:30 10° SSW 23:21:41 74° WNW 23:26:55 10° NNE
TIMED 4.4 23:18:07 10° NNW 23:22:30 69° ENE 23:26:50 10° SSE
Cosmos 1300 3.5 23:19:37 10° NNW 23:23:22 53° W 23:27:04 10° S
CSL-04 Debris 4.0 23:20:50 10° SSE 23:26:11 76° ENE 23:31:36 10° N
Cosmos 1939 Rocket 2.7 23:23:36 10° SSE 23:27:24 59° ENE 23:31:17 10° N
Cosmos 1825 Rocket 3.5 23:25:13 10° S 23:29:30 59° E 23:32:15 21° NNE
Cosmos 2341 Rocket 3.9 23:23:37 10° S 23:29:58 77° E 23:36:22 10° N
Meteor 1-21 Rocket 4.1 23:28:22 10° S 23:33:53 73° E 23:39:32 10° NNE
Cosmos 2333 Rocket 3.3 23:31:02 10° NW 23:36:29 46° WSW 23:41:51 10° S
Cosmos 1269 Rocket 3.9 23:32:20 10° NNW 23:37:39 75° ENE 23:42:55 10° SSE
ISS -1.4 23:36:01 10° S 23:36:54 14° SSE 23:36:54 14° SSE
SL-8 Rocket 3.9 23:32:28 10° S 23:38:42 65° E 23:44:56 10° NNE
Cosmos 2237 Rocket 2.1 23:34:57 10° NNW 23:40:35 69° ENE 23:46:11 10° SSE
NOSS 0 Rocket 4.0 23:35:04 10° NNW 23:41:19 82° WSW 23:47:29 10° SSE
Meteor 2-10 Rocket 3.6 23:37:49 10° N 23:43:06 52° ENE 23:48:09 10° SSE
CZ-4 R/B 2.9 23:47:29 10° SSW 23:51:12 38° W 23:55:02 10° NNW
